TimeCST,TemperatureF,Dew PointF,Humidity,Sea Level PressureIn,VisibilityMPH,Wind Direction,Wind SpeedMPH,Gust SpeedMPH,PrecipitationIn,Events,Conditions,WindDirDegrees,DateUTC
12:53 AM,66.0,62.1,87,30.05,10.0,SE,10.4,-,N/A,,Clear,130,2013-01-27 06:53:00
1:30 AM,66.2,62.6,88,30.05,10.0,SE,10.4,-,N/A,,Mostly Cloudy,130,2013-01-27 07:30:00
1:53 AM,66.0,63.0,90,30.04,10.0,ESE,10.4,-,N/A,,Mostly Cloudy,120,2013-01-27 07:53:00
2:05 AM,66.2,62.6,88,30.03,10.0,ESE,9.2,-,N/A,,Mostly Cloudy,120,2013-01-27 08:05:00
2:53 AM,64.9,63.0,93,30.02,10.0,SE,8.1,-,N/A,,Scattered Clouds,140,2013-01-27 08:53:00
3:53 AM,66.9,64.0,90,30.02,10.0,SSE,8.1,-,N/A,,Scattered Clouds,160,2013-01-27 09:53:00
4:03 AM,66.2,64.4,94,30.02,10.0,SSE,9.2,-,N/A,,Mostly Cloudy,160,2013-01-27 10:03:00
4:31 AM,66.2,64.4,94,30.01,10.0,SSE,8.1,-,N/A,,Mostly Cloudy,150,2013-01-27 10:31:00
4:53 AM,66.9,64.0,90,30.01,10.0,SSE,8.1,-,N/A,,Mostly Cloudy,150,2013-01-27 10:53:00
5:10 AM,66.2,64.4,94,30.01,9.0,SSE,8.1,-,N/A,,Overcast,150,2013-01-27 11:10:00
5:20 AM,66.2,64.4,94,30.01,9.0,SSE,6.9,-,N/A,,Overcast,150,2013-01-27 11:20:00
5:53 AM,66.9,64.9,93,30.01,9.0,SSE,8.1,-,N/A,,Overcast,150,2013-01-27 11:53:00
6:53 AM,68.0,64.9,90,30.02,10.0,SE,9.2,-,N/A,,Overcast,140,2013-01-27 12:53:00
7:21 AM,68.0,64.4,88,30.02,10.0,SE,8.1,-,N/A,,Overcast,130,2013-01-27 13:21:00
7:53 AM,69.1,64.9,87,30.02,10.0,SE,10.4,-,N/A,,Overcast,140,2013-01-27 13:53:00
8:53 AM,70.0,66.0,87,30.03,10.0,SE,13.8,20.7,N/A,,Overcast,140,2013-01-27 14:53:00
9:53 AM,73.0,66.0,79,30.04,10.0,SSE,16.1,25.3,N/A,,Overcast,150,2013-01-27 15:53:00
10:29 AM,75.2,66.2,73,30.04,10.0,SSE,20.7,-,N/A,,Overcast,150,2013-01-27 16:29:00
10:53 AM,75.9,66.0,71,30.04,10.0,SSE,20.7,28.8,N/A,,Mostly Cloudy,160,2013-01-27 16:53:00
11:09 AM,78.8,66.2,65,30.03,10.0,SSE,24.2,34.5,N/A,,Mostly Cloudy,150,2013-01-27 17:09:00
11:53 AM,80.1,64.0,58,30.01,10.0,South,25.3,36.8,N/A,,Mostly Cloudy,170,2013-01-27 17:53:00
12:53 PM,82.9,64.0,53,29.96,10.0,SSE,21.9,31.1,N/A,,Mostly Cloudy,160,2013-01-27 18:53:00
1:53 PM,84.0,63.0,49,29.94,10.0,SE,25.3,34.5,N/A,,Mostly Cloudy,140,2013-01-27 19:53:00
2:53 PM,82.9,64.0,53,29.92,10.0,SE,27.6,38.0,N/A,,Mostly Cloudy,140,2013-01-27 20:53:00
3:53 PM,81.0,64.9,58,29.91,10.0,SE,27.6,34.5,N/A,,Scattered Clouds,130,2013-01-27 21:53:00
4:53 PM,80.1,64.9,60,29.92,10.0,SE,25.3,35.7,N/A,,Clear,140,2013-01-27 22:53:00
5:53 PM,77.0,64.9,66,29.94,10.0,SSE,21.9,34.5,N/A,,Clear,150,2013-01-27 23:53:00
6:53 PM,75.0,66.0,73,29.95,10.0,SE,23.0,33.4,N/A,,Clear,140,2013-01-28 00:53:00
7:53 PM,73.9,66.0,76,29.97,10.0,SE,20.7,33.4,N/A,,Scattered Clouds,140,2013-01-28 01:53:00
8:06 PM,73.4,66.2,78,29.98,10.0,SE,19.6,32.2,N/A,,Mostly Cloudy,140,2013-01-28 02:06:00
8:53 PM,73.0,66.9,81,29.99,10.0,SE,19.6,27.6,N/A,,Overcast,140,2013-01-28 02:53:00
9:53 PM,73.0,66.9,81,29.99,10.0,SE,16.1,29.9,N/A,,Overcast,140,2013-01-28 03:53:00
10:26 PM,73.4,66.2,78,30.00,10.0,SE,15.0,-,N/A,,Overcast,140,2013-01-28 04:26:00
10:46 PM,71.6,66.2,83,30.01,10.0,SSE,17.3,-,N/A,,Mostly Cloudy,150,2013-01-28 04:46:00
10:53 PM,72.0,66.9,84,30.00,10.0,SSE,15.0,-,N/A,,Mostly Cloudy,150,2013-01-28 04:53:00
11:29 PM,73.4,68.0,83,30.01,10.0,SE,17.3,-,N/A,,Mostly Cloudy,140,2013-01-28 05:29:00
11:53 PM,73.0,68.0,84,30.01,10.0,SSE,17.3,-,N/A,,Overcast,150,2013-01-28 05:53:00